Location: Ford County Road and Bridge Department
(37.7686°N, 99.9762°W)
Time: 07:30:39
(UTC+00:00)

ATLAS 5 CENTAUR R/B - Pass Details

Date: 18 January 2020
Orbit: 550 x 1108 km, 63.4° (Epoch: 09 February)

Event Time Altitude Azimuth Distance (km) Brightness Sun altitude
Rises 00:17:52 0° 239° (WSW) 2,728 7.1 -6.5°
Reaches altitude 10° 00:20:14 10° 252° (WSW) 1,866 5.9 -6.9°
Maximum altitude 00:23:51 28° 313° (NW) 1,127 3.2 -7.6°
Drops below altitude 10° 00:27:49 10° 13° (NNE) 2,051 3.9 -8.3°
Enters shadow 00:30:24 - 24° (NNE) 2,998 4.7 -8.8°
